Location: Kershaw
(34.5481°N, 80.5823°W)
Time: 10:53:38
(UTC+00:00)

Altair - Pass Details

Date: 12 October 2022
Orbit: 1501 x 1682 km, 47.2° (Epoch: 30 November)

Event Time Altitude Azimuth Distance (km) Brightness Sun altitude
Rises 17:05:49 0° 285° (WNW) 4,923 10.0 47.9°
Reaches altitude 10° 17:12:21 10° 255° (WSW) 3,940 9.9 47.9°
Maximum altitude 17:15:00 11° 239° (WSW) 3,833 10.1 47.8°
Drops below altitude 10° 17:17:41 10° 224° (SW) 3,932 10.3 47.8°
Sets 17:24:15 0° 193° (SSW) 4,895 10.8 47.7°
